Location: Unspecified
(49.2170°N, 0.0000°E)
Time: 16:43:08
(UTC+00:00)

Transit 2A - Pass Details

Date: 22 June 2019
Orbit: 595 x 964 km, 66.7° (Epoch: 22 July)

Event Time Altitude Azimuth Distance (km) Brightness Sun altitude
Rises 09:07:57 0° 322° (NW) 3,477 9.0 47.4°
Reaches altitude 10° 09:10:35 10° 319° (NW) 2,481 8.4 47.8°
Maximum altitude 09:16:10 60° 241° (WSW) 901 6.8 48.6°
Drops below altitude 10° 09:21:10 10° 162° (SSE) 2,217 8.9 49.4°
Sets 09:23:25 0° 159° (SSE) 3,079 9.5 49.7°
